Tracking 29090 objects as of 15-Jul-2024
HD Live streaming from Space Station
objects crossing your sky now

EKRAN 7

Track EKRAN 7 now!
EKRAN 7 is classified as:


NORAD ID: 12564
Int'l Code: 1981-061A
Perigee: 35,795.7 km
Apogee: 35,824.0 km
Inclination: 8.2 °
Period: 1,436.9 minutes
Semi major axis: 42180 km
RCS: 3.9811 m2 (large)
Launch date: June 26, 1981
Source: Commonwealth of Independent States (former USSR) (CIS)
Launch site: TYURATAM MISSILE AND SPACE COMPLEX (TTMTR)
Your satellite tracking list
Your tracking list is empty




NASA's NSSDC Master Catalog

Two Line Element Set (TLE):
1 12564U 81061A   24196.86371354 -.00000061  00000-0  00000-0 0  9991
2 12564   8.1857 299.4360 0003355  90.9380 289.3830  1.00214381122476
Source of the keplerian elements: AFSPC